Meteo Giornale » Osservazioni meteo Francia » Caumont
ore: 20:00 - Osservazioni Meteo Caumont
Lat. 43° 54' N Lon. 4° 54' E Alt. 38 metri s.l.m.
29 °C
Sereno
Temp. 24 Ore
19 °C
33 °C
Nord-Ovest
13 Km/h
Dew point 10 °C
Umidità 30 %
Visibilità 10 Km
Il sole sorge alle ore 07:03
Il sole tramonta alle ore 20:16
| Data e Ora | Cielo e Fenomeni | T °C | DP °C | Um. % | Pres. hPa | Vis. km | Vento km/h | |
|---|---|---|---|---|---|---|---|---|
| Oggi h: 20:00 | Sereno | 29 | 10 | 30 | 1017 | 10 | NO 13 | |
| Oggi h: 19:30 | Sereno | 31 | 9 | 25 | 1016 | 10 | NO 14.8 | |
| Oggi h: 19:00 | Sereno | 32 | 8 | 22 | 1016 | 10 | NO 14.8 | |
| Oggi h: 18:30 | Sereno | 33 | 9 | 22 | 1017 | 10 | NO 11.1 | |
| Oggi h: 18:00 | Sereno | 33 | 9 | 22 | 1016 | 10 | N/NO 14.8 | |
| Oggi h: 17:30 | Sereno | 33 | 8 | 21 | 1016 | 10 | N/NO 20.3 | |
| Oggi h: 17:00 | Sereno | 33 | 9 | 22 | 1016 | 10 | N 20.3 | |
| Oggi h: 16:30 | Sereno | 33 | 10 | 24 | 1017 | 10 | N/NO 22.2 | |
| Oggi h: 16:00 | Sereno | 33 | 8 | 21 | 1017 | 10 | N/NO 18.5 | |
| Oggi h: 15:30 | Sereno | 32 | 10 | 25 | 1017 | 10 | N/NO 22.2 | |
| Oggi h: 15:00 | Sereno | 32 | 10 | 25 | 1018 | 10 | N/NO 22.2 | |
| Oggi h: 14:30 | Sereno | 31 | 11 | 29 | 1018 | 10 | N 24 | |
| Oggi h: 14:00 | Sereno | 31 | 12 | 31 | 1018 | 10 | N/NO 27.8 | |
| Oggi h: 13:30 | Sereno | 30 | 12 | 33 | 1018 | 10 | N/NO 25.9 | |
| Oggi h: 13:00 | Sereno | 29 | 11 | 32 | 1018 | 10 | N 25.9 | |
| Oggi h: 12:30 | Sereno | 29 | 12 | 35 | 1019 | 10 | N/NO 24 | |
| Oggi h: 12:00 | Sereno | 28 | 12 | 37 | 1019 | 10 | N 25.9 | |
| Oggi h: 11:30 | Sereno | 28 | 12 | 37 | 1019 | 10 | N/NO 20.3 | |
| Oggi h: 11:00 | Sereno | 27 | 12 | 39 | 1019 | 10 | N 24 | |
| Oggi h: 10:30 | Sereno | 26 | 12 | 41 | 1019 | 10 | N 25.9 | |
| Oggi h: 10:00 | Sereno | 25 | 12 | 44 | 1019 | 10 | N 27.8 | |
| Oggi h: 09:30 | Sereno | 24 | 12 | 47 | 1019 | 10 | N/NO 22.2 | |
| Oggi h: 09:00 | Sereno | 23 | 12 | 49 | 1019 | 10 | N/NO 18.5 | |
| Oggi h: 08:30 | Sereno | 22 | 12 | 53 | 1019 | 10 | N/NO 14.8 | |
| Oggi h: 08:00 | Sereno | 20 | 12 | 59 | 1019 | 10 | N 11.1 | |
| Oggi h: 07:30 | Sereno | 20 | 12 | 59 | 1018 | 10 | N 20.3 | |
| Oggi h: 07:00 | Sereno | 19 | 11 | 59 | 1018 | 10 | N/NO 14.8 | |
| Oggi h: 06:30 | Sereno | 19 | 11 | 59 | 1018 | 10 | N/NO 14.8 | |
| Oggi h: 06:00 | Sereno | 19 | 11 | 59 | 1018 | 10 | N 13 | |
| Oggi h: 05:30 | Sereno | 20 | 12 | 59 | 1018 | 10 | N 11.1 | |
| Oggi h: 05:00 | Sereno | 20 | 12 | 59 | 1018 | 10 | N 13 | |
| Oggi h: 04:30 | Sereno | 21 | 12 | 56 | 1018 | 10 | N 11.1 | |
| Oggi h: 04:00 | Sereno | 21 | 12 | 56 | 1018 | 10 | N 14.8 | |
| Oggi h: 03:30 | Sereno | 22 | 12 | 53 | 1019 | 10 | N 14.8 | |
| Oggi h: 03:00 | Sereno | 22 | 12 | 53 | 1018 | 10 | N/NO 16.7 | |
| Oggi h: 02:30 | Sereno | 22 | 12 | 53 | 1019 | 10 | N/NO 13 | |
| Oggi h: 02:00 | Sereno | 23 | 12 | 49 | 1018 | 10 | N 20.3 | |
| Oggi h: 01:30 | Sereno | 23 | 12 | 49 | 1018 | 10 | N/NO 22.2 | |
| Oggi h: 01:00 | Sereno | 23 | 12 | 49 | 1018 | 10 | N/NO 16.7 | |
| Oggi h: 00:30 | Sereno | 23 | 11 | 46 | 1018 | 10 | N/NO 14.8 | |
| Oggi h: 00:00 | Sereno | 23 | 12 | 49 | 1018 | 10 | N 13 | |
| Ieri h: 23:30 | Sereno | 24 | 12 | 47 | 1018 | 10 | N/NO 13 | |
| Ieri h: 23:00 | Sereno | 25 | 11 | 41 | 1018 | 10 | N/NO 13 | |
| Ieri h: 22:30 | Sereno | 25 | 11 | 41 | 1017 | 10 | N/NO 14.8 | |
| Ieri h: 22:00 | Sereno | 26 | 11 | 39 | 1017 | 10 | N/NO 14.8 | |
| Ieri h: 21:30 | Sereno | 26 | 11 | 39 | 1017 | 10 | N/NO 13 | |
| Ieri h: 21:00 | Sereno | 27 | 11 | 36 | 1017 | 10 | N/NO 13 | |



